Location: Leo
(52.0556°N, 112.3605°W)
Time: 04:41:20
(UTC+00:00)

VELOX 1 - Visible Passes

Search period start: 07 December 2023 00:00
Search period end: 17 December 2023 00:00
Orbit: 610 x 625 km, 98.4° (Epoch: 06 December)

Date Brightness Start Highest point End Pass type
(mag) Time Alt. Az. Time Alt. Az. Time Alt. Az.
07 Dec ? 12:21:11 10° E 12:23:53 17° NE 12:26:37 10° NNE visible
07 Dec ? 13:55:07 10° SSE 13:59:23 78° WSW 14:03:42 10° NNW visible
08 Dec ? 12:36:59 10° ESE 12:40:17 22° ENE 12:43:34 10° N visible
08 Dec ? 14:11:47 10° S 14:15:59 54° WSW 14:20:12 10° NNW visible
09 Dec ? 12:53:00 10° ESE 12:56:41 29° ENE 13:00:24 10° N visible
09 Dec ? 14:28:37 10° SSW 14:32:37 38° W 14:36:39 10° NNW visible
10 Dec ? 13:09:09 10° SE 13:13:08 39° ENE 13:17:09 10° N visible
10 Dec ? 14:45:36 10° SSW 14:49:16 27° W 14:52:58 10° NW visible
11 Dec ? 13:25:26 10° SSE 13:29:36 55° ENE 13:33:49 10° N visible
12 Dec ? 12:08:49 10° E 12:10:47 13° NE 12:12:46 10° NNE visible
12 Dec ? 13:41:50 10° SSE 13:46:06 78° ENE 13:50:24 10° NNW visible
13 Dec ? 12:24:19 10° E 12:27:06 17° ENE 12:29:55 10° NNE visible
13 Dec ? 13:58:21 10° S 14:02:38 75° WSW 14:06:57 10° NNW visible
14 Dec ? 12:40:07 10° ESE 12:43:27 23° ENE 12:46:49 10° N visible
14 Dec ? 14:15:01 10° S 14:19:11 52° W 14:23:24 10° NNW visible
15 Dec ? 12:56:06 10° SE 12:59:50 30° ENE 13:03:36 10° N visible
15 Dec ? 14:31:48 10° SSW 14:35:46 37° W 14:39:47 10° NNW visible
16 Dec ? 13:12:13 10° SE 13:16:14 41° ENE 13:20:17 10° N visible
16 Dec ? 14:48:45 10° SSW 14:52:23 27° W 14:56:03 10° NW visible
